Date,TemperatureHighF,TemperatureAvgF,TemperatureLowF,DewpointHighF,DewpointAvgF,DewpointLowF,HumidityHigh,HumidityAvg,HumidityLow,PressureMaxIn,PressureMinIn,WindSpeedMaxMPH,WindSpeedAvgMPH,GustSpeedMaxMPH,PrecipitationSumIn
2013-1-1,29,22,10,20,10,4,79,62,47,30.11,29.96,10,1,0,0.00
2013-1-2,25,20,11,17,12,5,83,71,63,30.16,30.04,11,1,0,0.00
2013-1-3,30,24,17,24,15,6,80,71,58,30.12,30.00,12,2,0,0.00
2013-1-4,32,28,24,22,18,17,77,67,56,30.13,29.94,19,3,0,0.01
2013-1-5,32,26,14,29,20,10,89,79,67,30.25,29.98,11,1,0,0.00
2013-1-6,36,34,32,32,28,24,89,81,68,30.19,29.85,14,2,0,0.05
2013-1-7,36,32,30,27,23,20,82,69,60,30.32,30.10,21,4,0,0.01
2013-1-8,38,30,25,26,23,20,81,74,62,30.20,30.11,11,1,0,0.01
2013-1-9,47,39,30,32,27,21,84,63,36,30.36,29.98,20,3,0,0.01
2013-1-10,40,32,24,32,26,20,88,77,58,30.54,30.16,6,0,0,0.03
2013-1-11,56,45,35,50,41,32,94,87,75,30.15,29.70,13,1,0,0.57
2013-1-12,59,51,44,49,45,42,92,83,67,29.86,29.76,12,1,0,0.00
2013-1-13,50,39,32,48,36,28,92,87,81,29.95,29.65,12,1,0,0.50
2013-1-14,32,25,18,28,16,13,85,69,57,30.39,29.95,17,2,0,0.00
2013-1-15,31,23,14,18,14,10,86,71,49,30.41,30.11,5,0,0,0.00
2013-1-16,39,30,20,26,17,10,86,62,31,30.11,29.75,19,2,0,0.00
2013-1-17,35,30,18,26,18,1,78,62,44,30.27,29.88,18,3,0,0.00
2013-1-18,36,25,14,21,12,2,78,59,43,30.41,29.92,20,4,0,0.00
2013-1-19,46,40,35,33,27,21,67,59,52,29.92,29.48,24,5,0,0.00
2013-1-20,44,23,16,33,8,2,65,51,37,30.15,29.46,30,6,0,0.00
2013-1-21,18,13,5,12,2,-8,80,59,46,30.12,29.92,17,2,0,0.00
2013-1-22,90,5,-1,67,-8,-16,67,54,43,30.26,30.06,17,2,0,0.00
2013-1-23,16,10,3,10,2,-6,79,68,51,30.26,30.06,12,1,0,0.00
2013-1-24,20,14,10,9,2,-4,79,61,37,30.55,30.08,14,1,0,0.00
2013-1-25,20,17,12,15,10,0,84,73,56,30.49,29.99,7,0,0,0.00
2013-1-26,27,21,14,16,13,9,85,73,53,30.41,30.02,11,1,0,0.00
2013-1-27,29,20,9,26,13,5,90,75,55,30.46,30.11,12,1,0,0.00
2013-1-28,43,36,29,42,34,26,95,92,88,30.13,29.78,10,1,0,0.28
2013-1-29,56,44,34,54,42,31,96,93,88,29.97,29.42,17,2,0,0.67
2013-1-30,61,51,34,55,47,28,94,87,78,29.42,29.01,21,4,0,0.39
2013-1-31,34,23,17,28,13,8,83,67,52,29.83,29.11,24,4,0,0.00